User: anonymous   Login
Location: Bouchavesnes-Bergen
(49.9859°N, 2.9203°E)
Time: 21:18:18
(UTC+00:00)
Language:

GENESIS II - Orbit

View from above orbital plane
View from above orbital plane
View from above satellite
View from above satellite

Ground track
Ground track

The orbit data is extracted from the following two-line orbital elements,

1 31789U 07028A   21134.65346502  .00000342  00000-0  26920-4 0  9999
2 31789  64.5043 340.2816 0011152 199.2148 160.8556 15.17755629765401
Epoch (UTC): 14 May 2021 15:40:59
Eccentricity: 0.0011152
inclination: 64.5043°
perigee height: 505 km
apogee height: 520 km
right ascension of ascending node: 340.2816°
argument of perigee: 199.2148°
revolutions per day: 15.17755629
mean anomaly at epoch: 160.8556°
orbit number at epoch: 76540

The dashed part of the orbit path shows where the satellite is in the earth's shadow,  

DLR